Regional Weather Roundup
Issued by NWS

Home | Current Version | Previous Version | Graphics & Text | Print | Product List | Glossary Off
Versions: 1 2 3 4 5 6 7 8 9 10 11 12 13 14 15 16 17 18 19 20 21 22 23 24 25 26 27 28 29 30 31 32 33 34 35 36 37 38 39 40 41 42 43 44 45 46 47 48 49 50

000
ASUS45 KBOI 250110
RWRID
WEATHER ROUNDUP FOR IDAHO
NATIONAL WEATHER SERVICE BOISE ID
600 PM MST MON NOV 24 2014

NOTE: "FAIR" INDICATES FEW OR NO CLOUDS BELOW 12000 FEET
WITH NO SIGNIFICANT WEATHER AND/OR OBSTRUCTIONS TO VISIBILITY

IDZ012-014-250200-
SOUTHWEST IDAHO


CITY           SKY/WX    TMP DP  RH WIND       PRES   REMARKS
BOISE          CLOUDY    41  28  60 S5        30.38F
CALDWELL       NOT AVBL
MOUNTAIN HOME  CLOUDY    39  33  78 W2        30.39F
$$

IDZ016-017-250200-
SOUTHCENTRAL IDAHO


CITY           SKY/WX    TMP DP  RH WIND       PRES   REMARKS
BURLEY         MOCLDY    33  25  72 SW7       30.37S WCI  27
JEROME         PTCLDY    34  28  79 SW10      30.38S WCI  26
TWIN FALLS     PTCLDY    35  27  72 SW8       30.39S WCI  29
$$

IDZ019>023-250200-
SOUTHEAST IDAHO


CITY           SKY/WX    TMP DP  RH WIND       PRES   REMARKS
IDAHO FALLS    CLOUDY    34  24  67 SW14      30.33R WCI  25
POCATELLO      CLEAR     34  27  75 SW10      30.37S WCI  26
REXBURG        CLOUDY    33  22  63 SW13      30.31R WCI  24
$$

IDZ006-010-011-018-031-032-250200-
CENTRAL IDAHO MOUNTAINS


CITY           SKY/WX    TMP DP  RH WIND       PRES   REMARKS
MCCALL         CLOUDY    29  26  89 NE3       30.31F
HAILEY         MOCLDY    28  18  64 CALM      30.34R
STANLEY          N/A     26  16  65 CALM      30.34R
SALMON         CLOUDY    32  21  64 SE3       30.32S
CHALLIS        CLOUDY    30  20  66 CALM      30.29F
$$

IDZ002-004-006-007-026-250200-
NORTHERN IDAHO


CITY           SKY/WX    TMP DP  RH WIND       PRES   REMARKS
LEWISTON       CLOUDY    45  32  60 SE8       30.26F
LOWELL           N/A     38  37  97 CALM      30.36F
COEUR D`ALENE  CLOUDY    37  30  75 S8        30.20F WCI  31
MULLAN PASS    CLOUDY    24  21  88 VRB6      30.13F WCI  17
$$


USA.gov is the U.S. government's official web portal to all federal, state and local government web resources and services.